Terug naar catalogus

SL-12 R/B(2)

ActiefGEO
NORAD 19094·ROCKET BODY·🇷🇺 Russia

Gelanceerd May 6, 1988 vanaf Baikonur Cosmodrome

Loading…

TLE

VersSource: Space-Track

Epoch: Sep 14, 2026, 09:48 UTC

1 19094U 88036E   26257.40836410 -.00000068  00000-0  00000-0 0  9991
2 19094  10.0266 322.1035 0021717 190.7359 216.1579  1.01118705122738

Volg SL-12 R/B(2) in realtime met AllMySat

Download on the App Store